Flag for U.S.A. Weather past 2 weeks in Beaumont, Texas, U.S.A.

Now
76 °F

Sunny.


Feels Like: 78 °F
Forecast: 59 / 80 °F
Wind: 12 mph from East

Location: Jefferson County Airport

Current Time: Oct 22, 2014 at 11:14:50 AM

Latest Report: Oct 22, 2014 at 10:53 AM


Visibility: 10 mi

Pressure: 30.11 "Hg

Humidity: 58%

Dew point: 60 °F

Location of BeaumontLocation

Historic Weather in Beaumont — Graph

°F

Beaumont temperature yesterday

Maximum temperature yesterday: 82 °F (at 2:53 PM)
Minimum temperature yesterday: 56 °F (at 5:53 AM)
Average temperature yesterday: 69 °F

Past Weeks' High & Low Weather Summary

 TemperatureHumidityPressure
High90 °F (Oct 10, 2:53 PM)97% (Oct 8, 5:53 AM)30.11 "Hg (Oct 8, 5:53 AM)
Low52 °F (Oct 15, 5:53 AM)31% (Oct 15, 12:53 PM)29.71 "Hg (Oct 13, 11:53 AM)
Average73 °F75%29.98 "Hg
* Reported Oct 7 9:53 AM — Oct 22 9:53 AM, Beaumont, Weather by CustomWeather, © 2014

Note: Actual official high and low records may vary slightly from our data, if they occured in-between our weather recording intervals... More about our weather records

Advertising

Beaumont weather history for previous 24 hours

 ConditionsComfort  
Time TempWeatherWind HumidityBarometerVisibility
9:53 AM
Oct 22
73 °FSunny.12 mph64%30.10 "Hg10 mi
8:53 AM68 °FSunny.7 mph78%30.09 "Hg9 mi
7:53 AM64 °FClear.7 mph87%30.06 "Hg7 mi
6:53 AM63 °FClear.N/A90%30.05 "Hg9 mi
5:53 AM64 °FClear.7 mph90%30.03 "Hg8 mi
4:53 AM65 °FClear.7 mph91%30.02 "Hg8 mi
3:53 AM65 °FClear.7 mph91%30.02 "Hg8 mi
2:53 AM66 °FClear.6 mph87%30.03 "Hg9 mi
1:53 AM66 °FClear.7 mph87%30.02 "Hg9 mi
12:53 AM63 °FClear.5 mph93%30.03 "Hg9 mi
11:53 PM
Oct 21
65 °FClear.3 mph91%30.03 "Hg10 mi
10:53 PM64 °FClear.5 mph90%30.03 "Hg9 mi
9:53 PM64 °FClear.No wind94%30.03 "Hg8 mi
8:53 PM64 °FClear.No wind90%30.01 "Hg9 mi
7:53 PM68 °FClear.N/A78%29.99 "Hg10 mi
6:53 PM75 °FSunny.7 mph60%29.98 "Hg9 mi
5:53 PM79 °FSunny.12 mph48%29.98 "Hg6 mi
4:53 PM81 °FSunny.10 mph45%29.98 "Hg10 mi
3:53 PM82 °FSunny.N/A43%29.98 "Hg10 mi
2:53 PM82 °FSunny.13 mph41%29.99 "Hg10 mi
1:53 PM81 °FSunny.13 mph38%30.01 "Hg10 mi
12:53 PM80 °FSunny.9 mph41%30.04 "Hg10 mi
11:53 AM77 °FSunny.13 mph47%30.06 "Hg10 mi
Weather by CustomWeather, © 2014

See weather overviewHow to use our weather pages